TimeCST,TemperatureF,Dew PointF,Humidity,Sea Level PressureIn,VisibilityMPH,Wind Direction,Wind SpeedMPH,Gust SpeedMPH,PrecipitationIn,Events,Conditions,WindDirDegrees,DateUTC
12:15 AM,19.4,10.4,68,29.80,10.0,West,8.1,-,N/A,,Clear,270,2013-02-13 06:15:00
12:35 AM,19.4,10.4,68,29.80,10.0,West,6.9,-,N/A,,Clear,260,2013-02-13 06:35:00
12:55 AM,17.6,10.4,73,29.80,10.0,West,5.8,-,N/A,,Clear,270,2013-02-13 06:55:00
1:15 AM,17.6,10.4,73,29.79,10.0,West,3.5,-,N/A,,Clear,280,2013-02-13 07:15:00
1:35 AM,17.6,10.4,73,29.79,10.0,West,5.8,-,N/A,,Clear,270,2013-02-13 07:35:00
1:55 AM,19.4,12.2,74,29.79,10.0,West,4.6,-,N/A,,Clear,280,2013-02-13 07:55:00
2:15 AM,17.6,8.6,68,29.79,10.0,West,5.8,-,N/A,,Clear,280,2013-02-13 08:15:00
2:35 AM,17.6,10.4,73,29.79,10.0,WNW,5.8,-,N/A,,Scattered Clouds,290,2013-02-13 08:35:00
2:55 AM,17.6,10.4,73,29.78,10.0,West,4.6,-,N/A,,Mostly Cloudy,280,2013-02-13 08:55:00
3:15 AM,19.4,12.2,74,29.77,10.0,West,5.8,-,N/A,,Mostly Cloudy,270,2013-02-13 09:15:00
3:35 AM,19.4,12.2,74,29.77,10.0,WNW,4.6,-,N/A,,Mostly Cloudy,290,2013-02-13 09:35:00
3:55 AM,19.4,10.4,68,29.77,10.0,Calm,Calm,-,N/A,,Overcast,0,2013-02-13 09:55:00
4:15 AM,19.4,12.2,74,29.76,10.0,Calm,Calm,-,N/A,,Overcast,0,2013-02-13 10:15:00
4:35 AM,19.4,12.2,74,29.76,10.0,SW,3.5,-,N/A,,Overcast,230,2013-02-13 10:35:00
4:55 AM,21.2,12.2,68,29.75,10.0,Calm,Calm,-,N/A,,Mostly Cloudy,0,2013-02-13 10:55:00
5:15 AM,21.2,15.8,80,29.75,10.0,West,3.5,-,N/A,,Overcast,260,2013-02-13 11:15:00
5:35 AM,23.0,15.8,74,29.74,10.0,Calm,Calm,-,N/A,,Overcast,0,2013-02-13 11:35:00
5:55 AM,24.8,15.8,69,29.73,10.0,Calm,Calm,-,N/A,,Overcast,0,2013-02-13 11:55:00
6:15 AM,24.8,15.8,69,29.73,10.0,Calm,Calm,-,N/A,,Overcast,0,2013-02-13 12:15:00
6:35 AM,24.8,15.8,69,29.72,10.0,Calm,Calm,-,N/A,,Overcast,0,2013-02-13 12:35:00
6:55 AM,24.8,15.8,69,29.71,10.0,Calm,Calm,-,N/A,,Overcast,0,2013-02-13 12:55:00
7:15 AM,24.8,15.8,69,29.71,10.0,Calm,Calm,-,N/A,,Overcast,0,2013-02-13 13:15:00
7:35 AM,23.0,15.8,74,29.71,7.0,Calm,Calm,-,N/A,,Scattered Clouds,0,2013-02-13 13:35:00
7:55 AM,24.8,15.8,69,29.70,7.0,Calm,Calm,-,N/A,,Clear,0,2013-02-13 13:55:00
8:16 AM,24.8,17.6,74,29.70,7.0,SW,5.8,-,N/A,,Clear,220,2013-02-13 14:16:00
8:35 AM,21.2,14.0,74,29.70,7.0,SW,6.9,-,N/A,,Clear,230,2013-02-13 14:35:00
8:55 AM,24.8,15.8,69,29.71,10.0,West,4.6,-,N/A,,Clear,260,2013-02-13 14:55:00
9:16 AM,26.6,15.8,64,29.71,10.0,West,3.5,-,N/A,,Clear,280,2013-02-13 15:16:00
9:35 AM,26.6,17.6,69,29.70,10.0,Calm,Calm,-,N/A,,Clear,0,2013-02-13 15:35:00
9:55 AM,28.4,17.6,64,29.69,10.0,WSW,4.6,-,N/A,,Clear,250,2013-02-13 15:55:00
10:15 AM,28.4,17.6,64,29.69,10.0,WSW,5.8,-,N/A,,Clear,240,2013-02-13 16:15:00
10:35 AM,32.0,19.4,60,29.69,7.0,WSW,5.8,-,N/A,,Clear,240,2013-02-13 16:35:00
10:55 AM,33.8,21.2,60,29.69,10.0,WSW,8.1,-,N/A,,Clear,250,2013-02-13 16:55:00
11:15 AM,33.8,21.2,60,29.68,10.0,WSW,5.8,-,N/A,,Clear,240,2013-02-13 17:15:00
11:35 AM,35.6,21.2,56,29.68,10.0,WSW,3.5,-,N/A,,Clear,250,2013-02-13 17:35:00
11:55 AM,35.6,21.2,56,29.68,10.0,WSW,4.6,-,N/A,,Clear,240,2013-02-13 17:55:00
12:15 PM,37.4,21.2,52,29.67,10.0,WSW,5.8,-,N/A,,Clear,250,2013-02-13 18:15:00
12:35 PM,37.4,21.2,52,29.66,10.0,WSW,6.9,-,N/A,,Clear,250,2013-02-13 18:35:00
12:55 PM,37.4,23.0,56,29.64,10.0,SW,4.6,-,N/A,,Clear,220,2013-02-13 18:55:00
1:15 PM,37.4,24.8,60,29.64,10.0,WSW,5.8,-,N/A,,Clear,240,2013-02-13 19:15:00
1:35 PM,37.4,24.8,60,29.64,10.0,WSW,4.6,-,N/A,,Clear,250,2013-02-13 19:35:00
1:55 PM,37.4,23.0,56,29.63,10.0,West,8.1,-,N/A,,Clear,260,2013-02-13 19:55:00
2:15 PM,37.4,23.0,56,29.62,10.0,West,4.6,-,N/A,,Clear,260,2013-02-13 20:15:00
2:35 PM,37.4,23.0,56,29.61,10.0,Calm,Calm,-,N/A,,Clear,0,2013-02-13 20:35:00
2:55 PM,37.4,23.0,56,29.61,10.0,Calm,Calm,-,N/A,,Clear,0,2013-02-13 20:55:00
3:15 PM,37.4,23.0,56,29.61,10.0,Calm,Calm,-,N/A,,Clear,0,2013-02-13 21:15:00
3:55 PM,37.4,26.6,65,29.60,2.0,SSE,3.5,-,N/A,,Mostly Cloudy,160,2013-02-13 21:55:00
4:15 PM,37.4,26.6,65,29.59,1.2,SSE,4.6,-,N/A,Snow,Light Snow,150,2013-02-13 22:15:00
4:35 PM,37.4,28.4,70,29.59,1.2,SSE,5.8,-,N/A,Snow,Light Snow,150,2013-02-13 22:35:00
4:55 PM,37.4,28.4,70,29.59,0.8,SW,3.5,-,N/A,Snow,Snow,230,2013-02-13 22:55:00
5:15 PM,37.4,30.2,75,29.59,0.8,SSW,3.5,-,0.01,Snow,Light Snow,210,2013-02-13 23:15:00
5:35 PM,37.4,30.2,75,29.58,1.0,South,3.5,-,0.02,Snow,Light Snow,190,2013-02-13 23:35:00
5:55 PM,37.4,30.2,75,29.58,0.8,Calm,Calm,-,0.03,,Overcast,0,2013-02-13 23:55:00
6:15 PM,37.4,30.2,75,29.58,1.8,SW,6.9,-,0.01,Snow,Light Snow,220,2013-02-14 00:15:00
6:35 PM,37.4,30.2,75,29.58,2.0,SW,5.8,-,0.02,Snow,Light Snow,220,2013-02-14 00:35:00
6:55 PM,37.4,30.2,75,29.57,2.5,SW,4.6,-,0.02,Snow,Light Snow,220,2013-02-14 00:55:00
7:15 PM,37.4,30.2,75,29.57,5.0,SW,5.8,-,N/A,,Haze,220,2013-02-14 01:15:00
7:35 PM,37.4,30.2,75,29.57,7.0,WSW,5.8,-,N/A,Snow,Light Snow,240,2013-02-14 01:35:00
7:55 PM,37.4,30.2,75,29.57,10.0,West,6.9,-,N/A,,Overcast,260,2013-02-14 01:55:00
8:15 PM,37.4,30.2,75,29.56,10.0,West,6.9,-,N/A,,Overcast,270,2013-02-14 02:15:00
8:35 PM,37.4,30.2,75,29.57,10.0,West,10.4,-,N/A,,Overcast,280,2013-02-14 02:35:00
8:55 PM,37.4,30.2,75,29.57,10.0,WNW,10.4,-,N/A,,Overcast,300,2013-02-14 02:55:00
9:15 PM,37.4,30.2,75,29.57,10.0,NW,12.7,-,N/A,,Overcast,310,2013-02-14 03:15:00
9:35 PM,37.4,30.2,75,29.58,2.5,NW,10.4,-,N/A,Snow,Light Snow,310,2013-02-14 03:35:00
9:55 PM,35.6,28.4,75,29.59,1.8,NNW,12.7,-,N/A,Snow,Light Snow,340,2013-02-14 03:55:00
10:15 PM,35.6,28.4,75,29.60,2.0,NNW,11.5,-,N/A,Snow,Light Snow,340,2013-02-14 04:15:00
10:35 PM,35.6,28.4,75,29.61,2.0,NNW,12.7,-,N/A,Snow,Light Snow,330,2013-02-14 04:35:00
10:55 PM,35.6,28.4,75,29.62,2.5,NNW,13.8,-,N/A,Snow,Light Snow,330,2013-02-14 04:55:00
11:15 PM,35.6,28.4,75,29.63,4.0,NNW,12.7,-,N/A,Snow,Light Snow,330,2013-02-14 05:15:00
11:35 PM,37.4,28.4,70,29.64,4.0,North,15.0,-,N/A,Snow,Light Snow,350,2013-02-14 05:35:00
11:55 PM,35.6,28.4,75,29.65,7.0,NNW,15.0,20.7,N/A,Snow,Light Snow,340,2013-02-14 05:55:00